When you browse on this site, cookies collect data to enhance your experience and personalize the content and advertising you see.
Visit our Privacy Policy to learn more. By continuing to use the site, you agree to this use of cookies and data.
  • In Czech Republic
  • List of Countries
  • For 7 days
  • Water Temperature
  • Weather Map
  • Weather Widgets
  • user-avatar
    Login

    Hourly Weather Klagenfurt

    Today, 23 September, Monday

    Time Temperature Precipitation Wind Pressure Humidity
    00:00 +10°C° 0 mm 1 mps 688 mmHg 93%
    01:00 +10°C° 0 mm 1 mps 688 mmHg 93%
    02:00 +10°C° 0 mm 1 mps 687 mmHg 93%
    03:00 +10°C° 0 mm 1 mps 687 mmHg 94%
    04:00 +10°C° 0 mm 1 mps 687 mmHg 95%
    05:00 +11°C° 0 mm 1 mps 687 mmHg 93%
    06:00 +12°C° 0 mm 1 mps 687 mmHg 92%
    07:00 +12°C° 0 mm 1 mps 687 mmHg 90%
    08:00 +14°C° 0.1 mm 1 mps 687 mmHg 87%
    09:00 +15°C° 0.1 mm 1 mps 688 mmHg 84%
    10:00 +16°C° 0.1 mm 1 mps 688 mmHg 80%
    11:00 +15°C° 0.6 mm 0 mps 688 mmHg 83%
    12:00 +15°C° 0.6 mm 0 mps 688 mmHg 86%
    13:00 +15°C° 0.6 mm 0 mps 688 mmHg 89%
    14:00 +15°C° 1.3 mm 0 mps 688 mmHg 91%
    15:00 +14°C° 1.3 mm 0 mps 688 mmHg 93%
    16:00 +15°C° 1.3 mm 1 mps 688 mmHg 95%
    17:00 +14°C° 2.9 mm 1 mps 688 mmHg 96%
    18:00 +13°C° 2.9 mm 1 mps 688 mmHg 97%
    19:00 +13°C° 2.9 mm 2 mps 688 mmHg 97%
    20:00 +12°C° 1.2 mm 2 mps 688 mmHg 97%
    21:00 +12°C° 1.2 mm 1 mps 688 mmHg 97%
    22:00 +12°C° 1.2 mm 1 mps 689 mmHg 97%
    23:00 +11°C° 0.1 mm 1 mps 689 mmHg 96%

    Tomorrow, 24 September, Tuesday

    Time Temperature Precipitation Wind Pressure Humidity
    00:00 +11°C° 0.1 mm 1 mps 689 mmHg 95%
    01:00 +11°C° 0.1 mm 1 mps 689 mmHg 95%
    02:00 +11°C° 0 mm 1 mps 689 mmHg 94%
    03:00 +11°C° 0 mm 1 mps 689 mmHg 94%
    04:00 +11°C° 0 mm 1 mps 689 mmHg 93%
    05:00 +11°C° 0 mm 1 mps 689 mmHg 93%
    06:00 +11°C° 0 mm 1 mps 689 mmHg 92%
    07:00 +11°C° 0 mm 1 mps 689 mmHg 92%
    08:00 +13°C° 0 mm 1 mps 689 mmHg 86%
    09:00 +14°C° 0 mm 1 mps 689 mmHg 80%
    10:00 +16°C° 0 mm 1 mps 690 mmHg 74%
    11:00 +18°C° 0 mm 1 mps 690 mmHg 69%
    12:00 +19°C° 0 mm 1 mps 689 mmHg 64%
    13:00 +20°C° 0 mm 1 mps 689 mmHg 58%
    14:00 +20°C° 0.1 mm 1 mps 689 mmHg 63%
    15:00 +19°C° 0.1 mm 1 mps 688 mmHg 68%
    16:00 +18°C° 0.1 mm 1 mps 688 mmHg 73%
    17:00 +15°C° 0 mm 1 mps 688 mmHg 80%
    18:00 +14°C° 0 mm 1 mps 687 mmHg 87%
    19:00 +12°C° 0 mm 1 mps 687 mmHg 94%
    20:00 +12°C° 0 mm 1 mps 687 mmHg 94%
    21:00 +11°C° 0 mm 1 mps 687 mmHg 94%
    22:00 +11°C° 0 mm 1 mps 687 mmHg 94%
    23:00 +9°C° 0 mm 0 mps 687 mmHg 94%

    Day after tomorrow, 25 September, Wednesday

    Time Temperature Precipitation Wind Pressure Humidity
    00:00 +9°C° 0 mm 0 mps 687 mmHg 94%
    01:00 +9°C° 0 mm 0 mps 687 mmHg 94%
    02:00 +9°C° 0 mm 0 mps 686 mmHg 94%
    03:00 +9°C° 0 mm 0 mps 686 mmHg 93%
    04:00 +9°C° 0 mm 0 mps 686 mmHg 93%
    05:00 +9°C° 0 mm 0 mps 686 mmHg 92%
    06:00 +9°C° 0 mm 0 mps 686 mmHg 91%
    07:00 +10°C° 0 mm 0 mps 686 mmHg 90%
    08:00 +12°C° 0 mm 0 mps 687 mmHg 84%
    09:00 +14°C° 0 mm 0 mps 687 mmHg 79%
    10:00 +16°C° 0 mm 0 mps 688 mmHg 73%
    11:00 +16°C° 0.3 mm 0 mps 688 mmHg 74%
    12:00 +16°C° 0.3 mm 0 mps 688 mmHg 76%
    13:00 +16°C° 0.3 mm 0 mps 687 mmHg 77%
    14:00 +15°C° 0.9 mm 0 mps 687 mmHg 83%
    15:00 +14°C° 0.9 mm 0 mps 687 mmHg 89%
    16:00 +12°C° 0.9 mm 0 mps 687 mmHg 95%
    17:00 +12°C° 0.5 mm 0 mps 687 mmHg 95%
    18:00 +13°C° 0.5 mm 1 mps 687 mmHg 96%
    19:00 +12°C° 0.5 mm 1 mps 687 mmHg 96%
    20:00 +12°C° 0.5 mm 1 mps 687 mmHg 96%
    21:00 +11°C° 0.5 mm 1 mps 688 mmHg 96%
    22:00 +11°C° 0.5 mm 1 mps 688 mmHg 96%
    23:00 +11°C° 0.4 mm 1 mps 688 mmHg 96%

    26 September, Thursday

    Time Temperature Precipitation Wind Pressure Humidity
    00:00 +11°C° 0.4 mm 1 mps 688 mmHg 96%
    01:00 +10°C° 0.4 mm 1 mps 688 mmHg 96%
    02:00 +10°C° 0.1 mm 1 mps 688 mmHg 96%
    03:00 +10°C° 0.1 mm 1 mps 688 mmHg 96%
    04:00 +10°C° 0.1 mm 1 mps 688 mmHg 95%
    05:00 +9°C° 0 mm 0 mps 689 mmHg 95%
    06:00 +9°C° 0 mm 0 mps 689 mmHg 95%
    07:00 +9°C° 0 mm 0 mps 689 mmHg 94%
    08:00 +11°C° 0 mm 0 mps 690 mmHg 87%
    09:00 +13°C° 0 mm 0 mps 691 mmHg 80%
    10:00 +16°C° 0 mm 1 mps 692 mmHg 73%
    11:00 +18°C° 0 mm 1 mps 692 mmHg 67%
    12:00 +19°C° 0 mm 1 mps 692 mmHg 62%
    13:00 +20°C° 0 mm 1 mps 692 mmHg 56%
    14:00 +19°C° 0 mm 1 mps 692 mmHg 59%
    15:00 +19°C° 0 mm 1 mps 692 mmHg 62%
    16:00 +18°C° 0 mm 1 mps 692 mmHg 65%
    17:00 +15°C° 0 mm 1 mps 691 mmHg 73%
    18:00 +13°C° 0 mm 1 mps 691 mmHg 81%
    19:00 +11°C° 0 mm 1 mps 691 mmHg 89%
    20:00 +11°C° 0 mm 1 mps 692 mmHg 90%
    21:00 +11°C° 0 mm 1 mps 692 mmHg 90%
    22:00 +10°C° 0 mm 1 mps 692 mmHg 90%
    23:00 +10°C° 0 mm 1 mps 692 mmHg 90%

    27 September, Friday

    Time Temperature Precipitation Wind Pressure Humidity
    00:00 +9°C° 0 mm 0 mps 692 mmHg 90%
    01:00 +9°C° 0 mm 0 mps 692 mmHg 91%
    02:00 +9°C° 0 mm 0 mps 692 mmHg 91%
    03:00 +8°C° 0 mm 0 mps 692 mmHg 91%
    04:00 +8°C° 0 mm 0 mps 691 mmHg 91%
    05:00 +9°C° 0 mm 0 mps 691 mmHg 89%
    06:00 +9°C° 0 mm 0 mps 691 mmHg 87%
    07:00 +10°C° 0 mm 0 mps 691 mmHg 86%
    08:00 +12°C° 0 mm 0 mps 692 mmHg 78%
    09:00 +14°C° 0 mm 0 mps 692 mmHg 71%
    10:00 +17°C° 0 mm 0 mps 693 mmHg 63%
    11:00 +17°C° 0 mm 0 mps 693 mmHg 60%
    12:00 +20°C° 0 mm 1 mps 693 mmHg 57%
    13:00 +21°C° 0 mm 1 mps 692 mmHg 55%
    14:00 +21°C° 0 mm 1 mps 692 mmHg 58%
    15:00 +20°C° 0 mm 1 mps 691 mmHg 61%
    16:00 +20°C° 0 mm 1 mps 691 mmHg 65%
    17:00 +18°C° 0 mm 1 mps 691 mmHg 73%
    18:00 +14°C° 0 mm 1 mps 691 mmHg 80%
    19:00 +12°C° 0 mm 1 mps 690 mmHg 88%
    20:00 +12°C° 0 mm 1 mps 691 mmHg 88%
    21:00 +11°C° 0 mm 1 mps 691 mmHg 88%
    22:00 +11°C° 0 mm 1 mps 691 mmHg 87%
    23:00 +11°C° 0 mm 1 mps 691 mmHg 86%

    28 September, Saturday

    Time Temperature Precipitation Wind Pressure Humidity
    00:00 +11°C° 0 mm 1 mps 690 mmHg 85%
    01:00 +10°C° 0 mm 1 mps 690 mmHg 83%
    02:00 +10°C° 0 mm 1 mps 690 mmHg 83%
    03:00 +9°C° 0 mm 0 mps 690 mmHg 83%
    04:00 +9°C° 0 mm 0 mps 690 mmHg 82%
    05:00 +9°C° 0 mm 0 mps 690 mmHg 82%
    06:00 +10°C° 0 mm 0 mps 690 mmHg 82%
    07:00 +10°C° 0 mm 0 mps 690 mmHg 81%
    08:00 +12°C° 0 mm 0 mps 691 mmHg 74%
    09:00 +15°C° 0 mm 0 mps 692 mmHg 67%
    10:00 +17°C° 0 mm 0 mps 692 mmHg 60%
    11:00 +19°C° 0 mm 1 mps 692 mmHg 59%
    12:00 +20°C° 0 mm 1 mps 692 mmHg 58%
    13:00 +20°C° 0 mm 1 mps 692 mmHg 57%
    14:00 +20°C° 0.1 mm 1 mps 691 mmHg 61%
    15:00 +19°C° 0.1 mm 1 mps 691 mmHg 66%
    16:00 +19°C° 0.1 mm 1 mps 691 mmHg 70%
    17:00 +16°C° 0 mm 1 mps 691 mmHg 77%
    18:00 +14°C° 0 mm 1 mps 691 mmHg 84%
    19:00 +12°C° 0 mm 1 mps 690 mmHg 91%
    20:00 +12°C° 0 mm 1 mps 691 mmHg 91%
    21:00 +11°C° 0 mm 1 mps 691 mmHg 91%
    22:00 +10°C° 0 mm 0 mps 691 mmHg 92%
    23:00 +10°C° 0 mm 0 mps 691 mmHg 92%
    Show more